Location: Puketoi
(40.5833°S, 176.0167°E)
Time: 14:58:13
(UTC+00:00)

IDEFIX/ARIANE 42P - Pass Details

Date: 08 February 2023
Orbit: 784 x 802 km, 98.5° (Epoch: 22 March)

Event Time Altitude Azimuth Distance (km) Brightness Sun altitude
Exits shadow 12:26:12 24° 127° (SE) 1,601 4.4 -34.4°
Drops below altitude 10° 12:29:41 10° 168° (SSE) 2,376 5.8 -34.4°
Sets 12:32:22 0° 180° (S) 3,312 6.8 -34.4°
